COSMOS 252 DEB, 3565

Orbit data source: Space-Track

COSMOS 252 DEB, 3565 is space debris in LEO originally from a launch on Fri, 01 Nov 1968 UTC launched from the Tyuratam Missile And Space Complex (TTMTR). Debris objects in space refer to the collection of defunct objects orbiting the Earth. Examples of debris include non-operational satellites, rocket bodies, and fragments generated from explosions, collisions, or faulty payload assembly.

Loading next visibility...
Identifier
3565, 1968-097R
Orbit
LEO
Country
Flag of CISCIS
Related business
Manufacturer
Unknown
Mission
Spacecraft
Bus & Motor
Unknown
Mass
Unknown
Launch date (UTC)
1968-11-01 (58 years ago)
Launch vehicle
Unknown
Launch site
Tyuratam Missile And Space Complex (TTMTR)
Object type
Payload
Rocket body
Debris
Shape & HBR
Unknown shape, 0.1 m
Radar Cross Section
Medium (>0.1 m² and <1 m²)

Expand to show TLE details & history
Last TLE update: 1 day ago

TLE from 1 day ago
0 COSMOS 252 DEB
1 03565U 68097R   26236.13656437  .00001602  00000-0  31836-3 0  9996
2 03565  62.2840 146.2872 0392554 269.3718  86.2357 14.26929199853051
Epoch: 2026-08-24T03:16Z
TLE epoch observation values (Epoch: 2026-08-24T03:16:39.161Z)
Latitude
-0°
Longitude
124.70143°
Altitude
796.296 km
Speed
7.46 km/s
True Right ascension
09h 45m 08s
True Declination
0° 00' 00"
Sunlit
Object was in daylight at epoch
Visualization orbit readout
Latitude
Unknown
Longitude
Unknown
Altitude
Unknown
Speed
Unknown
Apparent Right ascension
Unknown
Apparent Declination
Unknown
Sunlit
N/A
Visualization observer readout
Local Sidereal Time
01:56:32
Azimuth
Unknown
Elevation
Unknown
Doppler factor
Unknown
Orbital elements
Apogee altitude
1,082.756 km
Perigee altitude
519.121 km
Semi-major axis
7,179.076 km
Eccentricity
0.03926
Inclination
62.284°
RAAN
146.2872°
Arg. of periapsis
269.3718°
True anomaly
90.73421°
Mean anomaly
86.2357°
Eccentric anomaly
88.48408°
Mean motion
3.56813 °/min
Orbital period
100.89 mins
BSTAR
0.00031836
Loading maneuver chart data...
Computing Atmospheric mass density...
Loading historical data...
Loading historical data...
Loading historical data...
Loading historical data...
Loading historical data...
Loading historical data...
Loading historical data...

Documentation

Showing up to 5 results
|